BAW965 EDDH-EGLL

Flight info

Callsign BAW965
Flight time 1h 10m
Altitude 38000
Route WSN5G/33 WSN N125 ITMIZ DCT PARYD DCT ABNED L980 LOGAN
Aircraft A20N/M-SDE2E3FGHIRWXY/LB1

Departure

Time 2026-04-22 16:21
Airport Hamburg Helmut Schmidt Airport (EDDH)

Arrival

Time 2026-04-22 17:31
Airport London Heathrow Airport (EGLL)
Time Latitude Longitude Altitude Speed Heading
2026-04-22 16:06 53.63073 10.00382 51 ft 0 kts 93°
2026-04-22 16:09 53.63073 10.00381 51 ft 0 kts 93°
2026-04-22 16:12 53.63073 10.00380 51 ft 0 kts 93°
2026-04-22 16:14 53.63073 10.00374 49 ft 2 kts 92°
2026-04-22 16:14 53.63074 10.00350 51 ft 2 kts 94°
2026-04-22 16:14 53.63075 10.00325 49 ft 2 kts 95°
2026-04-22 16:15 53.63076 10.00298 51 ft 2 kts 97°
2026-04-22 16:15 53.63079 10.00270 51 ft 2 kts 99°
2026-04-22 16:15 53.63082 10.00243 48 ft 2 kts 104°
2026-04-22 16:15 53.63087 10.00216 46 ft 2 kts 117°
2026-04-22 16:16 53.63097 10.00195 50 ft 2 kts 156°
2026-04-22 16:16 53.63107 10.00190 49 ft 1 kts 172°
2026-04-22 16:16 53.63108 10.00189 49 ft 0 kts 172°
2026-04-22 16:18 53.63103 10.00191 48 ft 3 kts 172°
2026-04-22 16:18 53.63065 10.00183 47 ft 7 kts 205°
2026-04-22 16:18 53.63013 10.00127 50 ft 10 kts 214°
2026-04-22 16:19 53.62947 10.00053 51 ft 13 kts 214°
2026-04-22 16:19 53.62908 9.99968 51 ft 4 kts 240°
2026-04-22 16:19 53.62890 9.99912 51 ft 6 kts 243°
2026-04-22 16:19 53.62869 9.99839 50 ft 7 kts 244°
2026-04-22 16:20 53.62860 9.99753 52 ft 7 kts 302°
2026-04-22 16:20 53.62909 9.99700 49 ft 10 kts 333°
2026-04-22 16:20 53.63050 9.99579 51 ft 48 kts 333°
2026-04-22 16:20 53.63551 9.99142 50 ft 111 kts 333°
2026-04-22 16:21 53.64387 9.98424 66 ft 156 kts 332°
2026-04-22 16:21 53.65367 9.97641 654 ft 155 kts 332°
2026-04-22 16:21 53.66355 9.96928 1325 ft 153 kts 334°
2026-04-22 16:21 53.67333 9.96067 1808 ft 167 kts 330°
2026-04-22 16:22 53.69590 9.93970 2630 ft 203 kts 332°
2026-04-22 16:22 53.70777 9.92594 3114 ft 212 kts 311°
2026-04-22 16:22 53.71392 9.90343 3808 ft 217 kts 278°
2026-04-22 16:23 53.70656 9.85076 4986 ft 253 kts 252°
2026-04-22 16:23 53.70041 9.82111 5557 ft 273 kts 252°
2026-04-22 16:23 53.69408 9.79047 6464 ft 278 kts 252°
2026-04-22 16:24 53.68786 9.75982 7369 ft 283 kts 253°
2026-04-22 16:24 53.67524 9.69592 9131 ft 295 kts 253°
2026-04-22 16:24 53.66875 9.66278 9259 ft 296 kts 253°
2026-04-22 16:25 53.66230 9.62993 9387 ft 295 kts 253°
2026-04-22 16:25 53.64648 9.56594 9625 ft 298 kts 239°
2026-04-22 16:25 53.63442 9.53733 9744 ft 300 kts 234°
2026-04-22 16:26 53.62212 9.50887 9865 ft 302 kts 235°
2026-04-22 16:26 53.60973 9.48000 10263 ft 312 kts 235°
2026-04-22 16:26 53.59655 9.44921 10580 ft 335 kts 235°
2026-04-22 16:26 53.58253 9.41653 11063 ft 350 kts 234°
2026-04-22 16:27 53.56815 9.38310 11876 ft 355 kts 234°
2026-04-22 16:27 53.55360 9.34931 12693 ft 360 kts 234°
2026-04-22 16:27 53.53880 9.31499 13485 ft 365 kts 234°
2026-04-22 16:27 53.52379 9.28021 14251 ft 370 kts 234°
2026-04-22 16:28 53.50857 9.24501 14965 ft 374 kts 234°
2026-04-22 16:28 53.49318 9.20945 15666 ft 379 kts 234°
2026-04-22 16:28 53.47761 9.17355 16381 ft 382 kts 234°
2026-04-22 16:28 53.46185 9.13726 17066 ft 387 kts 234°
2026-04-22 16:29 53.44590 9.10059 17758 ft 391 kts 233°
2026-04-22 16:29 53.42974 9.06350 18413 ft 396 kts 233°
2026-04-22 16:29 53.41340 9.02603 19044 ft 400 kts 233°
2026-04-22 16:29 53.39690 8.98827 19615 ft 404 kts 233°
2026-04-22 16:30 53.38585 8.96300 20021 ft 406 kts 233°
2026-04-22 16:30 53.36336 8.91167 20806 ft 411 kts 233°
2026-04-22 16:30 53.34808 8.87110 21378 ft 415 kts 242°
2026-04-22 16:30 53.33626 8.82667 21944 ft 419 kts 250°
2026-04-22 16:31 53.32630 8.78073 22498 ft 423 kts 250°
2026-04-22 16:31 53.31614 8.73427 23054 ft 427 kts 250°
2026-04-22 16:31 53.30583 8.68748 23599 ft 431 kts 250°
2026-04-22 16:31 53.29538 8.64031 24129 ft 434 kts 250°
2026-04-22 16:32 53.28493 8.59276 24592 ft 438 kts 250°
2026-04-22 16:32 53.27444 8.54485 25056 ft 441 kts 250°
2026-04-22 16:32 53.26401 8.49729 25519 ft 443 kts 250°
2026-04-22 16:32 53.25386 8.44780 25971 ft 446 kts 252°
2026-04-22 16:33 53.24482 8.39899 26398 ft 449 kts 253°
2026-04-22 16:33 53.23559 8.34815 26831 ft 452 kts 253°
2026-04-22 16:33 53.22633 8.29780 27255 ft 455 kts 253°
2026-04-22 16:33 53.21691 8.24731 27666 ft 458 kts 252°
2026-04-22 16:34 53.20731 8.19653 28065 ft 460 kts 252°
2026-04-22 16:34 53.19759 8.14548 28451 ft 463 kts 252°
2026-04-22 16:34 53.18791 8.09475 28816 ft 466 kts 252°
2026-04-22 16:34 53.17815 8.04315 29201 ft 468 kts 252°
2026-04-22 16:35 53.16838 7.99121 29541 ft 471 kts 252°
2026-04-22 16:35 53.15852 7.93898 29871 ft 474 kts 252°
2026-04-22 16:35 53.14860 7.88659 30223 ft 476 kts 252°
2026-04-22 16:35 53.14257 7.85488 30426 ft 477 kts 252°
2026-04-22 16:36 53.13248 7.80194 30720 ft 480 kts 252°
2026-04-22 16:36 53.12244 7.74941 31029 ft 482 kts 252°
2026-04-22 16:36 53.11216 7.69581 31338 ft 483 kts 252°
2026-04-22 16:36 53.10184 7.64234 31690 ft 484 kts 251°
2026-04-22 16:37 53.08998 7.59014 32104 ft 483 kts 246°
2026-04-22 16:37 53.07661 7.53891 32513 ft 481 kts 245°
2026-04-22 16:37 53.06306 7.48818 32921 ft 480 kts 245°
2026-04-22 16:37 53.04964 7.43741 33327 ft 479 kts 246°
2026-04-22 16:38 53.03641 7.38662 33720 ft 478 kts 246°
2026-04-22 16:38 53.02335 7.33604 34109 ft 477 kts 246°
2026-04-22 16:38 53.01473 7.30259 34355 ft 476 kts 246°
2026-04-22 16:38 53.00170 7.25208 34660 ft 474 kts 246°
2026-04-22 16:39 52.98872 7.20186 34965 ft 473 kts 246°
2026-04-22 16:39 52.97570 7.15163 35238 ft 473 kts 246°
2026-04-22 16:39 52.96270 7.10160 35519 ft 472 kts 246°
2026-04-22 16:39 52.94971 7.05171 35795 ft 471 kts 246°
2026-04-22 16:40 52.93670 7.00187 36055 ft 470 kts 246°
2026-04-22 16:40 52.92372 6.95225 36307 ft 470 kts 247°
2026-04-22 16:40 52.89799 6.85418 36796 ft 468 kts 247°
2026-04-22 16:41 52.88500 6.80483 37041 ft 467 kts 247°
2026-04-22 16:41 52.87198 6.75546 37274 ft 467 kts 247°
2026-04-22 16:41 52.85898 6.70631 37475 ft 467 kts 247°
2026-04-22 16:41 52.84598 6.65721 37693 ft 466 kts 247°
2026-04-22 16:42 52.83295 6.60813 37902 ft 465 kts 247°
2026-04-22 16:42 52.81992 6.55919 38083 ft 465 kts 247°
2026-04-22 16:42 52.80688 6.51029 38263 ft 465 kts 247°
2026-04-22 16:42 52.79381 6.46138 38370 ft 465 kts 247°
2026-04-22 16:43 52.78077 6.41266 38382 ft 463 kts 247°
2026-04-22 16:43 52.75467 6.31550 38374 ft 463 kts 247°
2026-04-22 16:44 52.72849 6.21839 38376 ft 463 kts 247°
2026-04-22 16:44 52.70227 6.12161 38373 ft 462 kts 247°
2026-04-22 16:45 52.67596 6.02489 38372 ft 462 kts 247°
2026-04-22 16:45 52.64960 5.92837 38363 ft 462 kts 247°
2026-04-22 16:46 52.62316 5.83201 38369 ft 462 kts 247°
2026-04-22 16:46 52.59685 5.73647 38370 ft 461 kts 247°
2026-04-22 16:47 52.57009 5.63970 38375 ft 461 kts 247°
2026-04-22 16:47 52.54362 5.54440 38373 ft 461 kts 247°
2026-04-22 16:48 52.51672 5.44793 38378 ft 461 kts 247°
2026-04-22 16:48 52.49012 5.35293 38372 ft 461 kts 247°
2026-04-22 16:49 52.46328 5.25744 38379 ft 461 kts 247°
2026-04-22 16:49 52.43633 5.16200 38367 ft 461 kts 247°
2026-04-22 16:50 52.40932 5.06671 38372 ft 461 kts 247°
2026-04-22 16:50 52.38224 4.97155 38369 ft 461 kts 247°
2026-04-22 16:51 52.35524 4.87707 38376 ft 460 kts 247°
2026-04-22 16:51 52.32794 4.78192 38373 ft 459 kts 246°
2026-04-22 16:52 52.30105 4.68855 38376 ft 459 kts 246°
2026-04-22 16:52 52.27398 4.59497 38375 ft 458 kts 246°
2026-04-22 16:53 52.24670 4.50097 38374 ft 458 kts 246°
2026-04-22 16:53 52.21938 4.40725 38364 ft 457 kts 246°
2026-04-22 16:54 52.19199 4.31363 38357 ft 457 kts 246°
2026-04-22 16:54 52.16457 4.22032 38354 ft 456 kts 246°
2026-04-22 16:55 52.13708 4.12709 38355 ft 456 kts 246°
2026-04-22 16:55 52.10957 4.03420 38348 ft 455 kts 246°
2026-04-22 16:56 52.08203 3.94155 38362 ft 455 kts 246°
2026-04-22 16:56 52.05444 3.84909 38358 ft 454 kts 246°
2026-04-22 16:57 52.02678 3.75672 38359 ft 454 kts 246°
2026-04-22 16:57 51.99907 3.66458 38358 ft 454 kts 246°
2026-04-22 16:58 51.97603 3.58823 38367 ft 453 kts 246°
2026-04-22 16:58 51.94370 3.48149 38358 ft 453 kts 246°
2026-04-22 16:59 51.91587 3.38998 38353 ft 453 kts 246°
2026-04-22 16:59 51.88802 3.29872 38349 ft 452 kts 246°
2026-04-22 17:00 51.86188 3.20869 38350 ft 450 kts 252°
2026-04-22 17:00 51.84564 3.11186 38345 ft 445 kts 264°
2026-04-22 17:00 51.84181 3.06219 38354 ft 443 kts 267°
2026-04-22 17:01 51.83559 2.96313 38355 ft 443 kts 267°
2026-04-22 17:01 51.82912 2.86409 38354 ft 442 kts 266°
2026-04-22 17:02 51.82252 2.76529 38359 ft 442 kts 266°
2026-04-22 17:02 51.81586 2.66713 38003 ft 441 kts 266°
2026-04-22 17:03 51.81249 2.61786 37732 ft 440 kts 266°
2026-04-22 17:03 51.80911 2.56886 37465 ft 438 kts 266°
2026-04-22 17:03 51.80572 2.51994 37204 ft 438 kts 266°
2026-04-22 17:03 51.80230 2.47095 36682 ft 440 kts 266°
2026-04-22 17:04 51.79884 2.42160 35990 ft 442 kts 267°
2026-04-22 17:04 51.79534 2.37204 35200 ft 445 kts 267°
2026-04-22 17:04 51.79181 2.32240 34476 ft 445 kts 267°
2026-04-22 17:04 51.78825 2.27271 33635 ft 445 kts 267°
2026-04-22 17:05 51.78469 2.22312 32885 ft 443 kts 267°
2026-04-22 17:05 51.78143 2.17378 32114 ft 441 kts 268°
2026-04-22 17:05 51.77859 2.12452 31337 ft 441 kts 268°
2026-04-22 17:05 51.77583 2.07539 30769 ft 436 kts 268°
2026-04-22 17:06 51.77305 2.02699 30171 ft 430 kts 268°
2026-04-22 17:06 51.77024 1.97922 29620 ft 423 kts 268°
2026-04-22 17:06 51.76743 1.93231 29083 ft 417 kts 268°
2026-04-22 17:06 51.76463 1.88613 28572 ft 411 kts 268°
2026-04-22 17:07 51.76188 1.84107 28044 ft 405 kts 268°
2026-04-22 17:07 51.75912 1.79620 27522 ft 400 kts 268°
2026-04-22 17:07 51.75636 1.75165 27024 ft 395 kts 268°
2026-04-22 17:07 51.75362 1.70770 26497 ft 391 kts 268°
2026-04-22 17:08 51.75089 1.66413 25967 ft 388 kts 267°
2026-04-22 17:08 51.74816 1.62115 25646 ft 380 kts 268°
2026-04-22 17:08 51.74544 1.57798 25556 ft 394 kts 267°
2026-04-22 17:08 51.74264 1.53368 25520 ft 397 kts 267°
2026-04-22 17:09 51.73981 1.48945 25206 ft 397 kts 267°
2026-04-22 17:09 51.73695 1.44488 24466 ft 403 kts 267°
2026-04-22 17:09 51.73503 1.41481 23706 ft 412 kts 266°
2026-04-22 17:09 51.73099 1.35203 22113 ft 426 kts 266°
2026-04-22 17:10 51.72788 1.30458 21389 ft 423 kts 265°
2026-04-22 17:10 51.72477 1.25761 20714 ft 420 kts 265°
2026-04-22 17:10 51.72166 1.21085 20024 ft 418 kts 265°
2026-04-22 17:10 51.71855 1.16441 19391 ft 415 kts 265°
2026-04-22 17:11 51.71546 1.11851 18753 ft 412 kts 265°
2026-04-22 17:11 51.71236 1.07273 18108 ft 408 kts 265°
2026-04-22 17:11 51.70929 1.02760 17498 ft 403 kts 264°
2026-04-22 17:11 51.70622 0.98276 16905 ft 399 kts 264°
2026-04-22 17:12 51.70320 0.93901 16660 ft 386 kts 264°
2026-04-22 17:12 51.70031 0.89741 16505 ft 372 kts 264°
2026-04-22 17:12 51.69746 0.85655 16383 ft 365 kts 264°
2026-04-22 17:12 51.69458 0.81551 16373 ft 374 kts 264°
2026-04-22 17:13 51.69163 0.77324 16366 ft 384 kts 264°
2026-04-22 17:13 51.68861 0.73043 16279 ft 384 kts 264°
2026-04-22 17:13 51.68557 0.68771 15908 ft 384 kts 264°
2026-04-22 17:13 51.68251 0.64478 15212 ft 388 kts 264°
2026-04-22 17:14 51.67940 0.60138 14662 ft 384 kts 263°
2026-04-22 17:14 51.67639 0.55986 14434 ft 364 kts 263°
2026-04-22 17:14 51.67353 0.52048 14240 ft 344 kts 263°
2026-04-22 17:14 51.67080 0.48320 14041 ft 327 kts 263°
2026-04-22 17:15 51.66902 0.45886 13751 ft 320 kts 263°
2026-04-22 17:15 51.66558 0.41203 12955 ft 317 kts 263°
2026-04-22 17:15 51.66297 0.37681 12366 ft 315 kts 263°
2026-04-22 17:15 51.66043 0.34237 12071 ft 303 kts 263°
2026-04-22 17:16 51.65793 0.30882 11882 ft 305 kts 262°
2026-04-22 17:16 51.65534 0.27423 11617 ft 317 kts 262°
2026-04-22 17:16 51.65267 0.23875 11131 ft 321 kts 262°
2026-04-22 17:16 51.64993 0.20323 10636 ft 317 kts 261°
2026-04-22 17:17 51.64686 0.16840 10138 ft 312 kts 261°
2026-04-22 17:17 51.64380 0.13406 9604 ft 307 kts 261°
2026-04-22 17:17 51.64074 0.10036 9078 ft 302 kts 261°
2026-04-22 17:17 51.63775 0.06707 8622 ft 296 kts 261°
2026-04-22 17:18 51.63489 0.03513 8434 ft 282 kts 261°
2026-04-22 17:18 51.63217 0.00457 8350 ft 269 kts 261°
2026-04-22 17:18 51.62960 -0.02461 8349 ft 261 kts 261°
2026-04-22 17:18 51.62699 -0.05411 8345 ft 270 kts 261°
2026-04-22 17:19 51.62174 -0.11371 8034 ft 273 kts 261°
2026-04-22 17:19 51.61637 -0.17430 7479 ft 267 kts 261°
2026-04-22 17:20 51.61130 -0.23232 7448 ft 265 kts 261°
2026-04-22 17:20 51.60618 -0.29084 7345 ft 264 kts 261°
2026-04-22 17:21 51.60363 -0.32008 7349 ft 264 kts 261°
2026-04-22 17:21 51.59853 -0.37838 7347 ft 264 kts 261°
2026-04-22 17:22 51.59341 -0.43686 7346 ft 263 kts 261°
2026-04-22 17:22 51.59087 -0.46598 7348 ft 264 kts 261°
2026-04-22 17:22 51.58581 -0.52459 7170 ft 268 kts 261°
2026-04-22 17:23 51.58326 -0.55419 6739 ft 274 kts 261°
2026-04-22 17:23 51.57787 -0.61633 5711 ft 287 kts 261°
2026-04-22 17:23 51.57503 -0.64842 5197 ft 293 kts 261°
2026-04-22 17:24 51.57213 -0.68108 4678 ft 298 kts 261°
2026-04-22 17:24 51.56917 -0.71441 4148 ft 302 kts 261°
2026-04-22 17:24 51.56566 -0.74792 3638 ft 306 kts 253°
2026-04-22 17:24 51.55596 -0.77799 3161 ft 301 kts 226°
2026-04-22 17:25 51.53989 -0.79740 2989 ft 281 kts 198°
2026-04-22 17:25 51.52162 -0.80369 2967 ft 260 kts 178°
2026-04-22 17:25 51.50487 -0.79939 2976 ft 233 kts 148°
2026-04-22 17:25 51.49337 -0.78397 2979 ft 205 kts 122°
2026-04-22 17:26 51.48534 -0.76619 2979 ft 189 kts 119°
2026-04-22 17:26 51.48119 -0.75444 2984 ft 178 kts 109°
2026-04-22 17:26 51.47789 -0.73625 3002 ft 160 kts 97°
2026-04-22 17:26 51.47688 -0.71849 2987 ft 164 kts 91°
2026-04-22 17:27 51.47673 -0.70052 2842 ft 159 kts 89°
2026-04-22 17:27 51.47679 -0.68294 2619 ft 154 kts 88°
2026-04-22 17:27 51.47683 -0.66665 2431 ft 138 kts 88°
2026-04-22 17:27 51.47690 -0.65090 2233 ft 143 kts 89°
2026-04-22 17:28 51.47692 -0.63528 2037 ft 139 kts 88°
2026-04-22 17:28 51.47702 -0.61999 1860 ft 130 kts 88°
2026-04-22 17:28 51.47703 -0.60624 1682 ft 117 kts 88°
2026-04-22 17:28 51.47709 -0.59345 1525 ft 117 kts 83°
2026-04-22 17:29 51.47705 -0.58023 1354 ft 121 kts 86°
2026-04-22 17:29 51.47713 -0.56653 1187 ft 124 kts 87°
2026-04-22 17:29 51.47718 -0.55275 1013 ft 124 kts 85°
2026-04-22 17:29 51.47728 -0.53917 832 ft 121 kts 89°
2026-04-22 17:30 51.47748 -0.52570 618 ft 121 kts 89°
2026-04-22 17:30 51.47746 -0.51192 399 ft 125 kts 89°
2026-04-22 17:30 51.47749 -0.49809 245 ft 123 kts 89°
2026-04-22 17:30 51.47755 -0.48446 112 ft 123 kts 89°
2026-04-22 17:31 51.47752 -0.47212 86 ft 80 kts 92°
2026-04-22 17:31 51.47750 -0.46797 89 ft 0 kts 90°
2026-04-22 17:31 51.47751 -0.46797 89 ft 0 kts 90°
2026-04-22 17:31 51.47750 -0.46794 89 ft 2 kts 90°
2026-04-22 17:32 51.47750 -0.46708 89 ft 14 kts 90°
2026-04-22 17:32 51.47748 -0.46533 89 ft 17 kts 90°
2026-04-22 17:32 51.47752 -0.46333 88 ft 19 kts 95°
2026-04-22 17:32 51.47711 -0.46162 87 ft 15 kts 135°
2026-04-22 17:33 51.47625 -0.46074 90 ft 1 kts 156°
2026-04-22 17:33 51.47626 -0.46074 90 ft 0 kts 156°
2026-04-22 17:33 51.47625 -0.46074 90 ft 1 kts 156°
2026-04-22 17:34 51.47615 -0.46074 86 ft 2 kts 189°
2026-04-22 17:34 51.47596 -0.46109 89 ft 5 kts 256°
2026-04-22 17:34 51.47590 -0.46321 87 ft 13 kts 274°
2026-04-22 17:35 51.47592 -0.46478 87 ft 16 kts 270°
2026-04-22 17:35 51.47592 -0.46677 87 ft 20 kts 270°
2026-04-22 17:35 51.47584 -0.46875 89 ft 9 kts 262°
2026-04-22 17:35 51.47585 -0.46996 86 ft 13 kts 272°
2026-04-22 17:36 51.47581 -0.47156 90 ft 16 kts 269°
2026-04-22 17:36 51.47579 -0.47313 87 ft 9 kts 268°
2026-04-22 17:36 51.47582 -0.47433 90 ft 12 kts 264°
2026-04-22 17:36 51.47581 -0.47584 88 ft 15 kts 271°
2026-04-22 17:37 51.47580 -0.47774 88 ft 19 kts 270°
2026-04-22 17:37 51.47578 -0.48002 86 ft 22 kts 272°
2026-04-22 17:37 51.47552 -0.48118 89 ft 11 kts 212°
2026-04-22 17:37 51.47491 -0.48184 88 ft 12 kts 259°
2026-04-22 17:38 51.47483 -0.48328 89 ft 14 kts 248°
2026-04-22 17:38 51.47406 -0.48360 86 ft 13 kts 184°
2026-04-22 17:38 51.47307 -0.48364 87 ft 16 kts 179°
2026-04-22 17:38 51.47191 -0.48359 86 ft 18 kts 178°
2026-04-22 17:39 51.47060 -0.48360 86 ft 20 kts 181°
2026-04-22 17:39 51.46937 -0.48358 86 ft 14 kts 179°
2026-04-22 17:39 51.46885 -0.48375 88 ft 0 kts 225°
2026-04-22 17:40 51.46886 -0.48375 88 ft 0 kts 225°
2026-04-22 17:40 51.46880 -0.48398 86 ft 4 kts 257°
2026-04-22 17:40 51.46877 -0.48470 86 ft 8 kts 268°
2026-04-22 17:41 51.46875 -0.48569 86 ft 9 kts 270°
2026-04-22 17:41 51.46875 -0.48674 86 ft 9 kts 270°
2026-04-22 17:41 51.46893 -0.48716 88 ft 4 kts 347°
2026-04-22 17:41 51.46927 -0.48718 90 ft 0 kts 360°